Showing default

LEMUR 2 STELLA, 60533

Orbit data source: Space-Track

LEMUR 2 STELLA, 60533 is a payload satellite owned by Spire (US) in SSO that was launched on Fri, 16 Aug 2024 UTC via an FALCON 9 launch vehicle from the Air Force Western Test Range (AFWTR). Payload-class satellites include a variety of spacecraft equipped with specific instruments for various scientific and technological missions. These include communications satellites like Starlink; space stations such as the ISS; scientific satellites like the Hubble; Earth observation satellites from companies like Planet Labs, Umbra, and HawkEye 360; GPS; miniature CubeSats for education and research; and military/defense satellites.

Loading next visibility...
Identifier
60533, 2024-149BT
Orbit
SSO
Country
Flag of USUS
Related business
Manufacturer
Spire/Glasgow
Mission
Operational Commercial Com/MetRO
Bus & Motor
CUBESAT 3U, Unknown motor
Mass
7.6 kg wet, 7.6 kg dry
Launch date (UTC)
2024-08-16 (2 years ago)
Launch vehicle
FALCON 9
Launch site
Air Force Western Test Range (AFWTR)
Object type
Payload
Rocket body
Debris
Shape & HBR
Box + 2 Pan, 0.5 m
Radar Cross Section
0.063 m², Medium (>0.1 m² and < 1m²)

Expand to show TLE details & history
Last TLE update: 1 day ago

TLE from 1 day ago
0 LEMUR 2 STELLA
1 60533U 24149BT  26173.50899555  .00008987  00000-0  52843-3 0  9999
2 60533  97.6732 255.9871 0001370  96.7498 263.3888 15.11901580101308
Epoch: 2026-06-22T12:12Z
TLE epoch observation values (Epoch: 2026-06-22T12:12:57.215Z)
Latitude
-0.00002°
Longitude
162.05481°
Altitude
533.582 km
Speed
7.596 km/s
True Right ascension
17h 03m 56s
True Declination
0° 00' 00"
Sunlit
Object was in full shadow at epoch
Visualization orbit readout
Latitude
Unknown
Longitude
Unknown
Altitude
Unknown
Speed
Unknown
Apparent Right ascension
Unknown
Apparent Declination
Unknown
Sunlit
N/A
Visualization observer readout
Local Sidereal Time
10:52:58
Azimuth
Unknown
Elevation
Unknown
Doppler factor
Unknown
Orbital elements
Apogee altitude
528.335 km
Perigee altitude
526.443 km
Semi-major axis
6,905.526 km
Eccentricity
0.00014
Inclination
97.6732°
RAAN
255.9871°
Arg. of periapsis
96.7498°
True anomaly
263.37321°
Mean anomaly
263.3888°
Eccentric anomaly
263.381°
Mean motion
3.78223 °/min
Orbital period
95.18 mins
BSTAR
0.00052843
Loading maneuver chart data...
Computing Atmospheric mass density...
Loading historical data...
Loading historical data...
Loading historical data...
Loading historical data...
Loading historical data...
Loading historical data...
Loading historical data...

Documentation

Showing up to 5 results
|